This is the latest recevied weather packets stored in our database for station/object SQ9RHX-13. If no packets are shown the sender has not sent any weather packets the latest 10 day(s).
| Time | Temp. | Humidity | Pressure | Rain* | Wind** | Luminosity | Snow |
|---|---|---|---|---|---|---|---|
| 1777889703 | 25° C | 35% | 1017.2 hPa | 0 mm | - | 638 W/m² | - |
| 1777889403 | 25° C | 34% | 1017.2 hPa | 0 mm | - | 486 W/m² | - |
| 1777889103 | 24.44° C | 36% | 1017.3 hPa | 0 mm | - | 444 W/m² | - |
| 1777888803 | 24.44° C | 34% | 1017.2 hPa | 0 mm | - | 416 W/m² | - |
| 1777888503 | 24.44° C | 34% | 1017.3 hPa | 0 mm | - | 502 W/m² | - |
| 1777888203 | 24.44° C | 36% | 1017.5 hPa | 0 mm | - | 416 W/m² | - |
| 1777887904 | 24.44° C | 37% | 1017.4 hPa | 0 mm | - | 342 W/m² | - |
| 1777887603 | 25° C | 34% | 1017.5 hPa | 0 mm | - | 396 W/m² | - |
| 1777887304 | 25.56° C | 34% | 1017.5 hPa | 0 mm | - | 542 W/m² | - |
| 1777887004 | 25° C | 33% | 1017.3 hPa | 0 mm | - | 653 W/m² | - |
| 1777886704 | 25° C | 34% | 1017.6 hPa | 0 mm | - | 598 W/m² | - |
| 1777886404 | 24.44° C | 35% | 1017.5 hPa | 0 mm | - | 543 W/m² | - |
| 1777886104 | 24.44° C | 34% | 1017.6 hPa | 0 mm | - | 530 W/m² | - |
| 1777885803 | 25° C | 34% | 1017.5 hPa | 0 mm | - | 563 W/m² | - |
| 1777885503 | 25° C | 34% | 1017.6 hPa | 0 mm | - | 571 W/m² | - |
| 1777885203 | 24.44° C | 35% | 1017.5 hPa | 0 mm | - | 569 W/m² | - |
| 1777884905 | 23.89° C | 37% | 1017.6 hPa | 0 mm | - | 564 W/m² | - |
| 1777884604 | 23.89° C | 39% | 1017.8 hPa | 0 mm | - | 428 W/m² | - |
| 1777884303 | 23.89° C | 37% | 1017.7 hPa | 0 mm | - | 434 W/m² | - |
| 1777884004 | 23.33° C | 36% | 1017.5 hPa | 0 mm | - | 424 W/m² | - |
| 1777883703 | 23.33° C | 39% | 1017.5 hPa | 0 mm | - | 361 W/m² | - |
| 1777883403 | 23.33° C | 39% | 1017.6 hPa | 0 mm | - | 370 W/m² | - |
| 1777883103 | 23.33° C | 38% | 1017.8 hPa | 0 mm | - | 404 W/m² | - |
| 1777882802 | 22.78° C | 40% | 1017.6 hPa | 0 mm | - | 415 W/m² | - |
| 1777882502 | 22.22° C | 40% | 1017.6 hPa | 0 mm | - | 458 W/m² | - |
* Rain latest hour (hover to see other rain measurements)
** Current wind speed in m/s (hover to see current wind gust speed)